CDT,Max TemperatureF,Mean TemperatureF,Min TemperatureF,Max Dew PointF,MeanDew PointF,Min DewpointF,Max Humidity, Mean Humidity, Min Humidity, Max Sea Level PressureIn, Mean Sea Level PressureIn, Min Sea Level PressureIn, Max VisibilityMiles, Mean VisibilityMiles, Min VisibilityMiles, Max Wind SpeedMPH, Mean Wind SpeedMPH, Max Gust SpeedMPH,PrecipitationIn, CloudCover, Events, WindDirDegrees
2013-10-1,75,62,48,46,36,27,63,38,17,30.03,29.89,29.66,10,10,6,21,13,29,0.00,0,,298
2013-10-2,78,61,44,63,42,28,82,52,22,30.04,29.94,29.82,10,10,1,25,6,45,1.05,3,Thunderstorm,138
2013-10-3,60,56,53,55,51,48,88,84,77,29.92,29.86,29.82,10,4,0,15,8,16,0.03,8,,11
2013-10-4,60,56,53,55,52,48,88,83,77,29.92,29.84,29.73,10,2,0,20,14,26,0.09,8,Thunderstorm,59
2013-10-5,57,48,39,54,33,28,88,63,47,29.80,29.77,29.73,10,10,10,17,12,26,0.09,6,,200
2013-10-6,48,45,42,43,38,34,82,76,66,29.95,29.81,29.74,10,8,2,23,10,29,0.13,6,,319
2013-10-7,69,55,41,45,39,34,76,58,35,30.01,29.96,29.93,10,10,10,12,8,,0.00,0,,225
2013-10-8,73,62,51,43,39,36,58,44,31,29.94,29.87,29.80,10,10,10,29,15,38,0.00,0,,188
2013-10-9,78,64,51,46,44,41,71,50,30,30.01,29.97,29.92,10,10,5,18,13,25,0.00,0,,172
2013-10-10,78,66,53,48,45,43,67,49,32,30.00,29.90,29.80,10,10,8,26,16,34,0.00,0,,168
2013-10-11,71,60,48,54,47,37,82,61,40,29.80,29.69,29.57,10,10,6,29,18,43,0.21,2,Thunderstorm,175
2013-10-12,60,48,37,37,30,21,71,50,23,30.25,30.01,29.79,10,10,10,26,15,34,0.00,0,,264
2013-10-13,62,47,32,32,28,23,75,50,27,30.44,30.36,30.26,10,10,2,9,5,,0.00,0,,153
2013-10-14,50,44,39,43,35,28,82,68,53,30.35,30.09,29.74,10,10,5,25,10,32,0.95,6,Thunderstorm,120
2013-10-15,53,48,42,48,40,36,87,78,76,29.95,29.76,29.63,10,7,1,23,18,29,0.01,8,,272
2013-10-16,51,44,37,37,32,27,81,64,40,30.02,29.96,29.91,10,9,2,18,12,25,0.00,4,,294
2013-10-17,55,46,37,37,31,28,76,63,38,29.98,29.88,29.83,10,10,7,23,10,26,0.00,4,,273
2013-10-18,48,40,33,30,26,21,75,58,34,30.05,29.98,29.90,10,10,10,15,11,20,0.00,3,,280
2013-10-19,51,42,33,36,27,19,75,62,37,29.89,29.80,29.75,10,10,10,26,12,36,0.00,3,,270
2013-10-20,55,45,33,37,29,23,70,62,47,29.97,29.76,29.64,10,10,10,26,12,33,0.00,7,,258
2013-10-21,46,37,28,28,24,21,75,62,39,30.01,29.97,29.94,10,10,3,20,9,23,0.00,6,,295
2013-10-22,37,34,32,27,22,19,80,61,48,30.08,30.00,29.92,10,10,4,15,7,18,0.00,7,,6
2013-10-23,37,34,30,28,23,18,75,64,48,30.16,30.07,30.03,10,10,2,18,8,23,0.00,8,,294
2013-10-24,48,37,26,27,23,18,80,62,34,30.34,30.27,30.15,10,10,9,23,10,28,0.00,4,,303
2013-10-25,60,42,24,36,28,19,80,59,39,30.34,30.12,29.91,10,10,10,29,11,39,0.00,1,,214
2013-10-26,46,37,28,34,23,18,75,55,39,30.18,30.09,29.93,10,10,10,22,12,28,0.00,0,,301
2013-10-27,60,45,30,34,26,21,69,53,34,30.08,29.92,29.81,10,10,10,21,12,26,0.00,0,,251
2013-10-28,41,36,30,27,25,21,80,65,56,30.36,30.27,30.09,10,10,10,23,16,29,0.00,3,,47
2013-10-29,44,38,33,37,30,23,81,73,60,30.30,30.15,30.03,10,9,2,17,11,20,0.02,8,,70
2013-10-30,50,44,39,45,38,34,87,82,76,30.02,29.86,29.73,10,3,0,17,6,,0.00,8,,8
2013-10-31,42,38,33,34,31,28,87,77,70,29.72,29.55,29.46,10,9,2,16,11,18,0.00,8,,282